Weather History for La Crosse, WI

Change the Weather History Date:

Wednesday, September 18, 2013

  Actual Average Record
Temperature  
Mean Temperature 72 °F 62 °F  
Max Temperature 81 °F 72 °F 95 °F (1955)
Min Temperature 63 °F 51 °F 32 °F (1929)
Degree Days  
Heating Degree Days 0 5  
Month to date heating degree days 34 52  
Since 1 July heating degree days 48 72  
Cooling Degree Days 7 2  
Month to date cooling degree days 110 60  
Year to date cooling degree days 895 760  
Growing Degree Days 22 (Base 50)    
Moisture  
Dew Point 63 °F    
Average Humidity 73    
Maximum Humidity 87    
Minimum Humidity 58    
Precipitation  
Precipitation T in 0.12 in 1.60 in (1942)
Month to date precipitation 0.90 2.20  
Year to date precipitation 28.05 26.16  
Snow  
Snow 0.00 in 0.00 in 9.00 in (2001)
Month to date snowfall 0.0 0.0  
Since 1 July snowfall T 0.0  
Snow Depth 0.00 in    
Sea Level Pressure  
Sea Level Pressure 29.86 in    
Wind  
Wind Speed 11 mph (South)    
Max Wind Speed 20 mph    
Max Gust Speed 24 mph    
Visibility 9 miles    
Events      
T = Trace of Precipitation, MM = Missing Value Source: NWS Daily Summary

Daily Weather History Graph

Daily Weather History Graph

Search for Another Location

Airport:

Trip Planner

Search our weather history database for the weather conditions in past years. The results will help you decide how hot, cold, wet, or windy it might be!

Date:

Astronomy

Sep. 18, 2013 Rise Set
Actual Time 6:47 AM CDT 7:09 PM CDT
Civil Twilight 6:19 AM CDT 7:38 PM CDT
Nautical Twilight 5:45 AM CDT 8:11 PM CDT
Astronomical Twilight 5:10 AM CDT 8:46 PM CDT
Moon 6:31 PM CDT (9/18) 5:50 AM CDT (9/18)
Length of Visible Light 13h 18m
Length of Day
12h 21m
Waxing Gibbous, 99% of the Moon is Illuminated
Sep 18
Waxing Gibbous
Sep 19
Full
Sep 26
Last Quarter
Oct 4
New
Oct 11
First Quarter

Hourly Weather History & Observations

Time (CDT) Temp. Heat Index Dew Point Humidity Pressure Visibility Wind Dir Wind Speed Gust Speed Precip Events Conditions
12:53 AM 64.0 °F - 57.9 °F 80% 29.99 in 10.0 mi South 10.4 mph - 0.00 in   Overcast
1:53 AM 63.0 °F - 57.9 °F 84% 29.99 in 10.0 mi SSE 8.1 mph - 0.00 in   Overcast
2:53 AM 64.0 °F - 57.9 °F 80% 29.97 in 10.0 mi South 9.2 mph - N/A   Overcast
3:53 AM 64.0 °F - 57.9 °F 80% 29.95 in 9.0 mi SSE 8.1 mph - N/A   Overcast
4:39 AM 64.4 °F - 59.0 °F 83% 29.95 in 9.0 mi SSE 5.8 mph - N/A   Overcast
4:53 AM 64.9 °F - 59.0 °F 81% 29.94 in 9.0 mi South 8.1 mph - N/A   Overcast
5:53 AM 64.0 °F - 60.1 °F 87% 29.93 in 8.0 mi South 15.0 mph - N/A   Overcast
6:53 AM 64.0 °F - 60.1 °F 87% 29.92 in 7.0 mi South 12.7 mph - N/A   Overcast
7:53 AM 64.9 °F - 61.0 °F 87% 29.93 in 6.0 mi South 10.4 mph - N/A   Overcast
8:53 AM 66.0 °F - 61.0 °F 84% 29.91 in 5.0 mi South 10.4 mph - N/A   Haze
9:53 AM 66.9 °F - 62.1 °F 84% 29.90 in 5.0 mi South 13.8 mph 19.6 mph N/A   Haze
10:53 AM 71.1 °F - 63.0 °F 75% 29.88 in 7.0 mi SSE 10.4 mph - N/A   Mostly Cloudy
11:53 AM 72.0 °F - 63.0 °F 73% 29.88 in 8.0 mi South 13.8 mph - N/A   Overcast
12:53 PM 72.0 °F - 63.0 °F 73% 29.87 in 9.0 mi South 11.5 mph - N/A   Overcast
1:46 PM 75.2 °F - 64.4 °F 69% 29.85 in 10.0 mi South 15.0 mph - N/A   Scattered Clouds
1:53 PM 75.0 °F - 64.0 °F 69% 29.83 in 10.0 mi South 15.0 mph - N/A   Scattered Clouds
2:53 PM 79.0 °F - 64.9 °F 62% 29.80 in 10.0 mi South 16.1 mph 24.2 mph N/A   Clear
3:23 PM 78.8 °F - 64.4 °F 61% 29.82 in 10.0 mi South 16.1 mph 23.0 mph N/A   Mostly Cloudy
3:53 PM 80.1 °F 81.9 °F 64.9 °F 60% 29.79 in 10.0 mi South 18.4 mph 23.0 mph N/A   Mostly Cloudy
4:12 PM 80.6 °F 82.3 °F 64.4 °F 58% 29.81 in 10.0 mi South 13.8 mph - N/A   Scattered Clouds
4:37 PM 80.6 °F 82.7 °F 66.2 °F 61% 29.81 in 10.0 mi South 12.7 mph 20.7 mph N/A   Mostly Cloudy
4:53 PM 80.1 °F 82.1 °F 66.0 °F 62% 29.78 in 10.0 mi South 15.0 mph 20.7 mph N/A   Overcast
5:18 PM 80.6 °F 82.7 °F 66.2 °F 61% 29.80 in 10.0 mi SSE 12.7 mph 21.9 mph N/A   Mostly Cloudy
5:53 PM 79.0 °F - 66.9 °F 66% 29.77 in 10.0 mi SSE 10.4 mph - N/A   Clear
6:53 PM 78.1 °F - 66.9 °F 68% 29.76 in 10.0 mi SSE 9.2 mph - N/A   Clear
7:53 PM 75.9 °F - 66.9 °F 74% 29.78 in 10.0 mi SSE 11.5 mph - N/A   Clear
8:53 PM 75.0 °F - 66.9 °F 76% 29.78 in 10.0 mi SSE 9.2 mph - N/A   Clear
9:53 PM 75.0 °F - 68.0 °F 79% 29.78 in 10.0 mi South 8.1 mph - N/A   Clear
10:53 PM 73.0 °F - 68.0 °F 84% 29.78 in 10.0 mi South 8.1 mph - N/A   Clear
11:53 PM 73.0 °F - 68.0 °F 84% 29.77 in 9.0 mi South 5.8 mph - N/A   Clear